Tracking 27086 objects as of 22-Mar-2023
HD Live streaming from Space Station
objects crossing your sky now

NAVSTAR 61 (USA 199)

Track NAVSTAR 61 (USA 199) now!
NAVSTAR 61 (USA 199) is classified as:


NORAD ID: 32384
Int'l Code: 2007-062A
Perigee: 20,130.9 km
Apogee: 20,245.5 km
Inclination: 56.0 °
Period: 717.9 minutes
Semi major axis: 26559 km
RCS: 2 m2 (large)
Launch date: December 20, 2007
Source: United States (US)
Launch site: AIR FORCE EASTERN TEST RANGE (AFETR)
PRN: 29

The GPS 2R-18 spacecraft is the fifth in a series of eight with enhanced features designed to rejuvenate the GPS constellation
Your satellite tracking list
Your tracking list is empty




NASA's NSSDC Master Catalog

Two Line Element Set (TLE):
1 32384U 07062A   23080.77748549 -.00000059  00000-0  00000-0 0  9994
2 32384  56.0001 321.3191 0021582 141.0446 121.0809  2.00576641111771
Source of the keplerian elements: AFSPC